Location: El Corozo
(10.5833°N, 66.9667°W)
Time: 16:57:13
(UTC+00:00)

Cosmos 1727 Rocket - Pass Details

Date: 23 May 2024
Orbit: 959 x 997 km, 82.9° (Epoch: 15 May)

Event Time Altitude Azimuth Distance (km) Brightness Sun altitude
Rises 09:38:14 0° 355° (N) 3,670 7.3 -6.9°
Reaches altitude 10° 09:40:44 10° 355° (N) 2,728 6.6 -6.3°
Maximum altitude 09:47:00 84° 267° (W) 995 4.1 -4.9°
Drops below altitude 10° 09:53:19 10° 179° (S) 2,751 6.2 -3.5°
Sets 09:55:51 0° 178° (S) 3,703 6.8 -2.9°
